Jordan, MT

2:01 AM MDT on July 22, 2017 (GMT -0600)
Jordan

Weather History for KJDN - January, 2014

Change the Weather History Date:

Wednesday, January 29, 2014

  Actual Average Record
Temperature  
Mean Temperature 26 °F 19 °F  
Max Temperature 38 °F 30 °F 65 °F (1931)
Min Temperature 13 °F 7 °F -47 °F (1950)
Degree Days  
Heating Degree Days 39 46  
Month to date heating degree days 1128 1389  
Since 1 July heating degree days 4715 4839  
Cooling Degree Days 0 0  
Month to date cooling degree days 0 0  
Year to date cooling degree days 0 0  
Moisture  
Dew Point 17 °F    
Average Humidity 72    
Maximum Humidity 92    
Minimum Humidity 52    
Precipitation  
Precipitation 0.16 in 0.00 in 0.20 in (1938)
Month to date precipitation 0.22 0.22  
Year to date precipitation 0.22 0.22  
Snow  
Snow 0.00 in - - ()
Month to date snowfall 0.0  
Since 1 July snowfall 0.0  
Snow Depth 0.00 in    
Sea Level Pressure  
Sea Level Pressure 29.69 in    
Wind  
Wind Speed 10 mph (NNW)    
Max Wind Speed 16 mph    
Max Gust Speed 20 mph    
T = Trace of Precipitation, MM = Missing Value Source: NWS Daily Summary

Daily Weather History Graph

Daily Weather History Graph

Search for Another Location

Airport or City:

Trip Planner

Search our weather history database for the weather conditions in past years. The results will help you decide how hot, cold, wet, or windy it might be!

Date:

Astronomy

Jan. 29, 2014 Rise Set
Actual Time 7:37 AM MST 5:05 PM MST
Civil Twilight 7:04 AM MST 5:38 PM MST
Nautical Twilight 6:27 AM MST 6:15 PM MST
Astronomical Twilight 5:51 AM MST 6:51 PM MST
Moon 6:16 AM MST (1/29) 4:08 PM MST (1/29)
Length of Visible Light 10h 34m
Length of Day
9h 28m
Waning Crescent, 2% of the Moon is Illuminated
Jan 29
Waning Crescent
Jan 30
New
Feb 6
First Quarter
Feb 14
Full
Feb 22
Last Quarter

Hourly Weather History & Observations

Time (MST) Temp. Windchill Dew Point Humidity Pressure Visibility Wind Dir Wind Speed Gust Speed Precip Events Conditions
12:48 AM 26.1 °F 17.6 °F 12.9 °F 58% 29.80 in - West 8.1 mph - N/A   Unknown
1:48 AM 27.0 °F 16.7 °F 14.0 °F 58% 29.78 in - West 11.5 mph - N/A   Unknown
2:48 AM 28.0 °F 21.7 °F 16.0 °F 61% 29.78 in - West 5.8 mph - N/A   Unknown
3:48 AM 26.1 °F 17.6 °F 16.0 °F 66% 29.77 in - WSW 8.1 mph - N/A   Unknown
4:48 AM 28.0 °F 18.1 °F 18.0 °F 66% 29.76 in - West 11.5 mph - N/A   Unknown
5:48 AM 21.9 °F 13.4 °F 17.1 °F 82% 29.76 in - WNW 6.9 mph - N/A   Unknown
6:48 AM 26.1 °F 16.2 °F 19.0 °F 75% 29.75 in - West 10.4 mph - N/A   Unknown
7:48 AM 25.0 °F 15.5 °F 19.0 °F 78% 29.73 in - West 9.2 mph - N/A   Unknown
8:48 AM 28.9 °F 21.9 °F 21.0 °F 72% 29.75 in - WNW 6.9 mph - N/A   Unknown
9:48 AM 35.1 °F 31.0 °F 23.0 °F 61% 29.72 in - West 4.6 mph - N/A   Unknown
10:48 AM 37.0 °F 28.9 °F 23.0 °F 57% 29.69 in - NNW 12.7 mph - N/A   Unknown
11:48 AM 36.0 °F 28.0 °F 21.0 °F 55% 29.65 in - NW 11.5 mph - N/A   Unknown
12:48 PM 35.1 °F 27.4 °F 19.9 °F 54% 29.60 in - North 10.4 mph - N/A   Unknown
1:48 PM 33.1 °F 26.9 °F 19.9 °F 59% 29.61 in - North 6.9 mph - N/A   Unknown
2:48 PM 28.9 °F 19.2 °F 19.0 °F 67% 29.57 in - NNE 11.5 mph - N/A   Unknown
3:48 PM 25.0 °F 13.1 °F 19.9 °F 81% 29.59 in - NE 13.8 mph - N/A   Unknown
4:48 PM 23.0 °F 11.1 °F 19.9 °F 88% 29.58 in - NNE 12.7 mph - 0.03 in   Unknown
5:48 PM 19.9 °F 7.3 °F 16.0 °F 85% 29.61 in - NNE 12.7 mph - 0.02 in   Unknown
6:48 PM 19.0 °F 9.0 °F 16.0 °F 88% 29.63 in - North 8.1 mph - 0.05 in   Unknown
7:48 PM 18.0 °F 7.7 °F 15.1 °F 88% 29.66 in - North 8.1 mph - 0.03 in   Unknown
8:48 PM 17.1 °F 3.6 °F 12.9 °F 84% 29.66 in - North 12.7 mph - 0.03 in   Unknown
9:48 PM 16.0 °F 3.6 °F 12.0 °F 84% 29.70 in - NNE 10.4 mph - N/A   Unknown
10:48 PM 15.1 °F 1.8 °F 10.9 °F 84% 29.74 in - North 11.5 mph - N/A   Unknown
11:48 PM 12.9 °F 2.6 °F 10.0 °F 88% 29.78 in - North 6.9 mph - N/A   Unknown